Location: Göttingen
(51.5413°N, 9.9158°E)
Time: 05:57:19
(UTC+02:00)

Envisat - Pass Details

Date: 24 January 2022
Orbit: 764 x 765 km, 98.2° (Epoch: 25 May)

Event Time Altitude Azimuth Distance (km) Brightness Sun altitude
Rises 17:50:44 0° 218° (SW) 3,221 7.3 -8.6°
Reaches altitude 10° 17:54:12 10° 243° (WSW) 2,301 7.1 -9.1°
Maximum altitude 17:56:49 14° 275° (W) 2,033 6.3 -9.5°
Drops below altitude 10° 17:59:27 10° 306° (NW) 2,310 6.0 -9.9°
Sets 18:02:58 0° 331° (NNW) 3,243 6.4 -10.4°
